Regional Weather Roundup
Issued by NWS Bismarck, ND

Home | Current Version | Previous Version | Text Only | Print | Product List | Glossary On
Versions: 1 2 3 4 5 6 7 8 9 10 11 12 13 14 15 16 17 18 19 20 21 22 23 24 25 26 27 28 29 30 31 32 33 34 35 36 37 38 39 40 41 42 43 44 45 46 47 48 49 50
000
ASUS43 KBIS 210720
RWRBIS

NWR BROADCAST TEXT
NATIONAL WEATHER SERVICE BISMARCK ND
200 AM CDT MON APR 21 2014

NOTE: "FAIR" INDICATES FEW OR NO CLOUDS BELOW 12,000 FEET WITH NO
SIGNIFICANT WEATHER AND/OR OBSTRUCTIONS TO VISIBILITY.


CITY           SKY/WX    TMP DP  RH WIND       PRES   REMARKS
WILLISTON      CLEAR     43  32  65 N6        30.10R
MINOT          CLEAR     45  34  65 W15       30.00R
MINOT AFB      CLEAR     44  36  74 W15       29.99R
BISMARCK       CLEAR     42  28  57 W7        30.05R
DICKINSON      CLEAR     37  25  61 NW9       30.08R
GARRISON         N/A     46  32  58 W14       30.02S
HETTINGER ARPT CLEAR     34  24  67 CALM      30.13R
JAMESTOWN      CLEAR     45  32  60 W10       29.98R
CARRINGTON     FAIR      46  32  57 W17       29.99R
CROSBY         PTSUNNY   41  41 100 NW15      30.07R
HARVEY         FAIR      46  34  61 NW15G26   29.98S
HAZEN          FAIR      39  28  65 SW12      30.07R
LINTON         FAIR      37  28  70 W6        30.06R
MANDAN         FAIR      39  27  60 W10       30.06R
OAKES          FAIR      46  36  66 W7        30.00R
RUGBY          FAIR      41  36  81 W14       29.95R
STANLEY        FAIR      39  36  87 NW15      30.03S
TIOGA          FAIR      41  37  87 NW16G23   30.08R
WATFORD CITY   FAIR      41  32  70 W7        30.08R
$$

CITY           SKY/WX    TMP DP  RH WIND       PRES   REMARKS
GRAND FORKS    PTCLDY    48  37  65 W10       29.91R
GRAND FORKS AF PTCLDY    50  36  57 W12       29.91R
DEVILS LAKE    CLEAR     45  32  61 W15       29.92S
FARGO          CLOUDY    50  35  56 CALM      29.94R
CANDO          FAIR      45  34  65 W17G24    29.91S
CAVALIER       FAIR      39  36  87 N8        29.88S
GRAFTON        FAIR      43  36  75 W12       29.88S
GWINNER        PTSUNNY   55  34  44 NW10      29.99S
LANGDON        FAIR      41  34  75 W13       29.87R
ROLLA          FAIR      45  37  76 W18       29.91R
WALHALLA       FAIR      39  39 100 NW10      29.89R
$$

CITY           SKY/WX    TMP DP  RH WIND       PRES   REMARKS
ABERDEEN       CLOUDY    54  32  43 N12       30.01R
MOBRIDGE       CLEAR     46  26  45 NW12      30.04R
BUFFALO          N/A     40  22  48 W6        30.09R
RAPID CITY     CLEAR     43  24  47 NW13      30.15R
GLASGOW        CLEAR     36  27  69 N7        30.12R
SIDNEY         CLEAR     41  28  60 NW10      30.13R
WOLF POINT     CLEAR     41  27  57 CALM      30.13R
GLENDIVE       PTCLDY    37  25  60 W8        30.14R
MILES CITY     CLEAR     38  24  57 VRB3      30.16R
BAKER          CLEAR     38  23  55 CALM      30.14S
$$

CITY           SKY/WX    TMP DP  RH WIND       PRES   REMARKS
BILLINGS       CLEAR     44  18  35 NW3       30.20S
GREAT FALLS    CLOUDY    38  22  52 S6        30.18F
REGINA         CLOUDY    34  34 100 NW9       30.11R
ESTEVAN        CLOUDY    39  39 100 NW14      30.05R
$$




USA.gov is the U.S. government's official web portal to all federal, state and local government web resources and services.